Time,TemperatureF,DewpointF,PressureIn,WindDirection,WindDirectionDegrees,WindSpeedMPH,WindSpeedGustMPH,Humidity,HourlyPrecipIn,Conditions,Clouds,dailyrainin,SoftwareType,DateUTC
2013-02-22 00:09:00,33.7,29.0,30.15,NE,41,0.0,-999.0,84,-99.99,,,0.04,weatherlink.com 1.10,2013-02-22 05:09:00,
2013-02-22 00:24:00,33.2,29.0,30.15,West,280,2.0,-999.0,85,-99.99,,,0.00,weatherlink.com 1.10,2013-02-22 05:24:00,
2013-02-22 00:39:00,32.7,29.0,30.14,North,8,0.0,-999.0,86,-99.99,,,0.01,weatherlink.com 1.10,2013-02-22 05:39:00,
2013-02-22 00:54:00,32.1,29.0,30.13,ESE,116,0.0,-999.0,89,-99.99,,,0.01,weatherlink.com 1.10,2013-02-22 05:54:00,
2013-02-22 01:09:00,31.6,29.0,30.14,East,80,0.0,-999.0,91,-99.99,,,0.02,weatherlink.com 1.10,2013-02-22 06:09:00,
2013-02-22 01:24:00,31.6,30.0,30.15,North,357,0.0,-999.0,93,-99.99,,,0.04,weatherlink.com 1.10,2013-02-22 06:24:00,
2013-02-22 01:39:00,31.6,30.0,30.14,North,359,0.0,-999.0,94,-99.99,,,0.07,weatherlink.com 1.10,2013-02-22 06:39:00,
2013-02-22 01:54:00,31.6,30.0,30.15,North,359,0.0,-999.0,95,-99.99,,,0.08,weatherlink.com 1.10,2013-02-22 06:54:00,
2013-02-22 02:09:00,31.5,30.0,30.13,North,0,0.0,-999.0,95,-99.99,,,0.08,weatherlink.com 1.10,2013-02-22 07:09:00,
2013-02-22 02:24:00,31.0,30.0,30.13,North,0,0.0,-999.0,95,-99.99,,,0.08,weatherlink.com 1.10,2013-02-22 07:24:00,
2013-02-22 02:39:00,30.4,29.0,30.13,North,353,0.0,-999.0,95,-99.99,,,0.08,weatherlink.com 1.10,2013-02-22 07:39:00,
2013-02-22 02:54:00,30.3,29.0,30.12,ENE,66,0.0,-999.0,96,-99.99,,,0.08,weatherlink.com 1.10,2013-02-22 07:54:00,
2013-02-22 03:10:00,30.1,29.0,30.11,ENE,66,0.0,-999.0,96,-99.99,,,0.08,weatherlink.com 1.10,2013-02-22 08:10:00,
2013-02-22 03:24:00,30.0,29.0,30.10,ENE,66,0.0,-999.0,96,-99.99,,,0.08,weatherlink.com 1.10,2013-02-22 08:24:00,
2013-02-22 03:39:00,30.0,29.0,30.12,ENE,66,0.0,-999.0,97,-99.99,,,0.08,weatherlink.com 1.10,2013-02-22 08:39:00,
2013-02-22 03:54:00,29.7,29.0,30.12,ENE,66,0.0,-999.0,97,-99.99,,,0.08,weatherlink.com 1.10,2013-02-22 08:54:00,
2013-02-22 04:09:00,29.7,29.0,30.13,ENE,66,0.0,-999.0,97,-99.99,,,0.08,weatherlink.com 1.10,2013-02-22 09:09:00,
2013-02-22 04:24:00,29.5,29.0,30.10,ENE,66,0.0,-999.0,97,-99.99,,,0.08,weatherlink.com 1.10,2013-02-22 09:24:00,
2013-02-22 04:39:00,29.5,29.0,30.12,ENE,66,0.0,-999.0,98,-99.99,,,0.08,weatherlink.com 1.10,2013-02-22 09:39:00,
2013-02-22 04:54:00,29.4,29.0,30.12,ENE,66,0.0,-999.0,98,-99.99,,,0.08,weatherlink.com 1.10,2013-02-22 09:54:00,
2013-02-22 05:09:00,29.4,29.0,30.12,ENE,66,0.0,-999.0,98,-99.99,,,0.08,weatherlink.com 1.10,2013-02-22 10:09:00,
2013-02-22 05:24:00,29.4,29.0,30.11,ENE,66,0.0,-999.0,98,-99.99,,,0.08,weatherlink.com 1.10,2013-02-22 10:24:00,
2013-02-22 05:39:00,29.3,29.0,30.13,ENE,66,0.0,-999.0,98,-99.99,,,0.08,weatherlink.com 1.10,2013-02-22 10:39:00,
2013-02-22 05:54:00,29.3,29.0,30.14,ENE,66,0.0,-999.0,98,-99.99,,,0.08,weatherlink.com 1.10,2013-02-22 10:54:00,
2013-02-22 06:09:00,29.3,29.0,30.15,ENE,66,0.0,-999.0,98,-99.99,,,0.08,weatherlink.com 1.10,2013-02-22 11:09:00,
2013-02-22 06:24:00,29.3,29.0,30.15,ENE,66,0.0,-999.0,98,-99.99,,,0.08,weatherlink.com 1.10,2013-02-22 11:24:00,
2013-02-22 06:39:00,29.3,29.0,30.16,ENE,66,0.0,-999.0,99,-99.99,,,0.09,weatherlink.com 1.10,2013-02-22 11:39:00,
2013-02-22 06:55:00,29.4,29.0,30.16,ENE,66,0.0,-999.0,99,-99.99,,,0.09,weatherlink.com 1.10,2013-02-22 11:55:00,
2013-02-22 07:09:00,29.4,29.0,30.17,ENE,66,0.0,-999.0,99,-99.99,,,0.09,weatherlink.com 1.10,2013-02-22 12:09:00,
2013-02-22 07:24:00,29.5,29.0,30.17,ENE,66,0.0,-999.0,99,-99.99,,,0.09,weatherlink.com 1.10,2013-02-22 12:24:00,
2013-02-22 07:40:00,29.5,29.0,30.18,ENE,66,0.0,-999.0,99,-99.99,,,0.09,weatherlink.com 1.10,2013-02-22 12:40:00,
2013-02-22 07:54:00,29.5,29.0,30.18,ENE,66,0.0,-999.0,99,-99.99,,,0.09,weatherlink.com 1.10,2013-02-22 12:54:00,
2013-02-22 08:10:00,29.5,29.0,30.19,ENE,66,0.0,-999.0,99,-99.99,,,0.09,weatherlink.com 1.10,2013-02-22 13:10:00,
2013-02-22 08:24:00,29.5,29.0,30.18,ENE,66,0.0,-999.0,99,-99.99,,,0.09,weatherlink.com 1.10,2013-02-22 13:24:00,
2013-02-22 08:39:00,29.7,30.0,30.17,ENE,66,0.0,-999.0,99,-99.99,,,0.09,weatherlink.com 1.10,2013-02-22 13:39:00,
2013-02-22 08:55:00,29.7,30.0,30.17,ENE,66,0.0,-999.0,99,-99.99,,,0.09,weatherlink.com 1.10,2013-02-22 13:55:00,
2013-02-22 09:09:00,29.8,30.0,30.17,ENE,66,0.0,-999.0,99,-99.99,,,0.09,weatherlink.com 1.10,2013-02-22 14:09:00,
2013-02-22 09:24:00,29.7,30.0,30.18,ENE,66,0.0,-999.0,99,-99.99,,,0.09,weatherlink.com 1.10,2013-02-22 14:24:00,
2013-02-22 09:39:00,29.7,30.0,30.17,ENE,66,0.0,-999.0,99,-99.99,,,0.09,weatherlink.com 1.10,2013-02-22 14:39:00,
2013-02-22 09:55:00,30.0,30.0,30.17,ENE,66,0.0,-999.0,99,-99.99,,,0.09,weatherlink.com 1.10,2013-02-22 14:55:00,
2013-02-22 10:10:00,30.4,30.0,30.17,ENE,66,0.0,-999.0,99,-99.99,,,0.09,weatherlink.com 1.10,2013-02-22 15:10:00,
2013-02-22 10:24:00,30.6,30.0,30.17,ENE,66,0.0,-999.0,99,-99.99,,,0.09,weatherlink.com 1.10,2013-02-22 15:24:00,
2013-02-22 10:39:00,30.6,30.0,30.17,ENE,66,0.0,-999.0,99,-99.99,,,0.09,weatherlink.com 1.10,2013-02-22 15:39:00,
2013-02-22 10:54:00,30.7,31.0,30.18,ENE,66,0.0,-999.0,99,-99.99,,,0.09,weatherlink.com 1.10,2013-02-22 15:54:00,
2013-02-22 11:09:00,31.2,31.0,30.18,North,7,0.0,-999.0,99,-99.99,,,0.09,weatherlink.com 1.10,2013-02-22 16:09:00,
2013-02-22 11:24:00,31.6,31.0,30.17,North,4,0.0,-999.0,99,-99.99,,,0.09,weatherlink.com 1.10,2013-02-22 16:24:00,
2013-02-22 11:39:00,32.1,32.0,30.18,North,3,0.0,-999.0,99,-99.99,,,0.09,weatherlink.com 1.10,2013-02-22 16:39:00,
2013-02-22 11:54:00,32.2,32.0,30.17,ENE,59,0.0,-999.0,99,-99.99,,,0.09,weatherlink.com 1.10,2013-02-22 16:54:00,
2013-02-22 12:09:00,32.5,32.0,30.16,North,354,0.0,-999.0,99,-99.99,,,0.09,weatherlink.com 1.10,2013-02-22 17:09:00,
2013-02-22 12:24:00,32.4,32.0,30.16,East,90,0.0,-999.0,99,-99.99,,,0.09,weatherlink.com 1.10,2013-02-22 17:24:00,
2013-02-22 12:40:00,32.2,32.0,30.16,NE,49,1.0,-999.0,99,-99.99,,,0.10,weatherlink.com 1.10,2013-02-22 17:40:00,
2013-02-22 12:54:00,32.4,32.0,30.16,WSW,248,0.0,-999.0,99,-99.99,,,0.10,weatherlink.com 1.10,2013-02-22 17:54:00,
2013-02-22 13:09:00,32.4,32.0,30.15,NNE,13,0.0,-999.0,99,-99.99,,,0.11,weatherlink.com 1.10,2013-02-22 18:09:00,
2013-02-22 13:24:00,32.4,32.0,30.14,North,10,0.0,-999.0,99,-99.99,,,0.12,weatherlink.com 1.10,2013-02-22 18:24:00,
2013-02-22 13:39:00,32.2,32.0,30.15,North,0,0.0,-999.0,99,-99.99,,,0.13,weatherlink.com 1.10,2013-02-22 18:39:00,
2013-02-22 13:54:00,32.1,32.0,30.14,North,0,0.0,-999.0,99,-99.99,,,0.14,weatherlink.com 1.10,2013-02-22 18:54:00,
2013-02-22 14:09:00,32.2,32.0,30.14,North,0,0.0,-999.0,99,-99.99,,,0.15,weatherlink.com 1.10,2013-02-22 19:09:00,
2013-02-22 14:24:00,32.2,32.0,30.12,North,0,0.0,-999.0,99,-99.99,,,0.16,weatherlink.com 1.10,2013-02-22 19:24:00,
2013-02-22 14:40:00,32.7,33.0,30.12,North,1,0.0,-999.0,100,-99.99,,,0.16,weatherlink.com 1.10,2013-02-22 19:40:00,
2013-02-22 14:55:00,32.7,33.0,30.12,North,0,0.0,-999.0,100,-99.99,,,0.17,weatherlink.com 1.10,2013-02-22 19:55:00,
2013-02-22 15:10:00,33.1,33.0,30.13,ESE,110,0.0,-999.0,100,-99.99,,,0.18,weatherlink.com 1.10,2013-02-22 20:10:00,
2013-02-22 15:25:00,34.3,34.0,30.12,NE,49,1.0,-999.0,100,-99.99,,,0.18,weatherlink.com 1.10,2013-02-22 20:25:00,
2013-02-22 15:40:00,33.7,34.0,30.11,North,352,1.0,-999.0,100,-99.99,,,0.19,weatherlink.com 1.10,2013-02-22 20:40:00,
2013-02-22 15:55:00,33.4,33.0,30.10,North,3,0.0,-999.0,100,-99.99,,,0.20,weatherlink.com 1.10,2013-02-22 20:55:00,
2013-02-22 16:10:00,32.8,33.0,30.11,NE,55,1.0,-999.0,100,-99.99,,,0.21,weatherlink.com 1.10,2013-02-22 21:10:00,
2013-02-22 16:25:00,32.2,32.0,30.11,NW,325,0.0,-999.0,100,-99.99,,,0.21,weatherlink.com 1.10,2013-02-22 21:25:00,
2013-02-22 16:55:00,31.6,32.0,30.10,NNW,332,0.0,-999.0,100,-99.99,,,0.22,weatherlink.com 1.10,2013-02-22 21:55:00,
2013-02-22 17:10:00,31.6,32.0,30.12,NNW,343,0.0,-999.0,100,-99.99,,,0.22,weatherlink.com 1.10,2013-02-22 22:10:00,
2013-02-22 17:25:00,31.3,31.0,30.11,NNW,336,3.0,-999.0,100,-99.99,,,0.22,weatherlink.com 1.10,2013-02-22 22:25:00,
2013-02-22 17:40:00,31.2,31.0,30.11,NNW,347,0.0,-999.0,100,-99.99,,,0.22,weatherlink.com 1.10,2013-02-22 22:40:00,
2013-02-22 17:55:00,31.0,31.0,30.11,NNW,347,0.0,-999.0,100,-99.99,,,0.22,weatherlink.com 1.10,2013-02-22 22:55:00,
2013-02-22 18:10:00,30.9,31.0,30.11,North,0,0.0,-999.0,100,-99.99,,,0.23,weatherlink.com 1.10,2013-02-22 23:10:00,
2013-02-22 18:25:00,30.7,31.0,30.12,North,0,0.0,-999.0,100,-99.99,,,0.23,weatherlink.com 1.10,2013-02-22 23:25:00,
2013-02-22 18:40:00,30.6,31.0,30.11,North,0,0.0,-999.0,100,-99.99,,,0.23,weatherlink.com 1.10,2013-02-22 23:40:00,
2013-02-22 18:55:00,30.4,30.0,30.11,North,359,0.0,-999.0,100,-99.99,,,0.23,weatherlink.com 1.10,2013-02-22 23:55:00,
2013-02-22 19:10:00,30.4,30.0,30.12,North,359,0.0,-999.0,100,-99.99,,,0.23,weatherlink.com 1.10,2013-02-23 00:10:00,
2013-02-22 19:25:00,30.4,30.0,30.12,North,0,0.0,-999.0,100,-99.99,,,0.23,weatherlink.com 1.10,2013-02-23 00:25:00,
2013-02-22 19:40:00,30.3,30.0,30.11,North,0,0.0,-999.0,100,-99.99,,,0.23,weatherlink.com 1.10,2013-02-23 00:40:00,
2013-02-22 19:55:00,30.3,30.0,30.11,North,0,0.0,-999.0,100,-99.99,,,0.23,weatherlink.com 1.10,2013-02-23 00:55:00,
2013-02-22 20:10:00,30.1,30.0,30.11,North,0,0.0,-999.0,100,-99.99,,,0.23,weatherlink.com 1.10,2013-02-23 01:10:00,
2013-02-22 20:25:00,30.1,30.0,30.11,North,0,0.0,-999.0,100,-99.99,,,0.23,weatherlink.com 1.10,2013-02-23 01:25:00,
2013-02-22 20:40:00,30.1,30.0,30.12,North,0,0.0,-999.0,100,-99.99,,,0.23,weatherlink.com 1.10,2013-02-23 01:40:00,
2013-02-22 20:55:00,30.0,30.0,30.11,North,359,0.0,-999.0,100,-99.99,,,0.23,weatherlink.com 1.10,2013-02-23 01:55:00,
2013-02-22 21:10:00,30.0,30.0,30.11,North,0,0.0,-999.0,100,-99.99,,,0.23,weatherlink.com 1.10,2013-02-23 02:10:00,
2013-02-22 21:25:00,29.8,30.0,30.11,North,354,0.0,-999.0,100,-99.99,,,0.23,weatherlink.com 1.10,2013-02-23 02:25:00,
2013-02-22 21:40:00,30.0,30.0,30.11,North,352,0.0,-999.0,100,-99.99,,,0.23,weatherlink.com 1.10,2013-02-23 02:40:00,
2013-02-22 21:55:00,29.8,30.0,30.11,North,349,0.0,-999.0,100,-99.99,,,0.23,weatherlink.com 1.10,2013-02-23 02:55:00,
2013-02-22 22:10:00,29.8,30.0,30.11,North,349,0.0,-999.0,100,-99.99,,,0.23,weatherlink.com 1.10,2013-02-23 03:10:00,
2013-02-22 22:25:00,29.8,30.0,30.11,North,349,0.0,-999.0,100,-99.99,,,0.23,weatherlink.com 1.10,2013-02-23 03:25:00,
2013-02-22 22:40:00,29.7,30.0,30.11,North,349,1.0,-999.0,100,-99.99,,,0.23,weatherlink.com 1.10,2013-02-23 03:40:00,
2013-02-22 22:55:00,29.7,30.0,30.09,NNW,347,0.0,-999.0,100,-99.99,,,0.23,weatherlink.com 1.10,2013-02-23 03:55:00,
2013-02-22 23:10:00,29.4,29.0,30.09,NW,325,0.0,-999.0,100,-99.99,,,0.23,weatherlink.com 1.10,2013-02-23 04:10:00,
2013-02-22 23:25:00,29.3,29.0,30.08,NW,325,0.0,-999.0,100,-99.99,,,0.23,weatherlink.com 1.10,2013-02-23 04:25:00,
2013-02-22 23:40:00,29.4,29.0,30.07,NW,325,0.0,-999.0,100,-99.99,,,0.23,weatherlink.com 1.10,2013-02-23 04:40:00,
2013-02-22 23:55:00,29.5,30.0,30.07,NW,323,0.0,-999.0,100,-99.99,,,0.23,weatherlink.com 1.10,2013-02-23 04:55:00,